Location: downtown San Diego
(32.7310°N, 117.1990°W)
Time: 20:38:19
(UTC-07:00)

Spot 2 Rocket - Pass Details

Date: 14 June 2018
Orbit: 757 x 772 km, 98.7° (Epoch: 18 August)

Event Time Altitude Azimuth Distance (km) Brightness Sun altitude
Exits shadow 20:57:44 11° 158° (SSE) 2,236 5.4 -11.4°
Maximum altitude 21:02:36 71° 75° (ENE) 801 3.5 -12.2°
Drops below altitude 10° 21:07:38 10° 352° (N) 2,296 6.7 -13.0°
Sets 21:09:57 0° 350° (N) 3,227 7.6 -13.4°
